Find Starlink 34870

NORAD ID: 65370 Int'l Des: 2025-190 Owner: SPXS Country: US Constellation: starlink operational
LEOCIRCULAR

現在のビュー

3D地球を読み込み中...

About Starlink 34870

Starlink 34870 (NORAD 65370) is a starlink constellation satellite (v2 mini) launched Aug 28, 2025 by SPXS of US. It operates in LEO, CIRCULAR orbit with a mass of 575.00 kg.

次回通過

Passes for default location (London). Set your location on the main map for personalized predictions.

高度履歴

Loading altitude history...

軌道要素

1 65370U 25190V 26265.44801871 .00017648 00000-0 53235-3 0 9999
2 65370 53.1615 332.5677 0001334 89.7001 270.4154 15.34392432 59433
Epoch: Sep 22, 2026 • Age: 9 hours

現在のステータス

高度 481.8 km
遠地点 / 近地点 N/A
速度 7.62 km/s
衛星直下点 -52.53°S, 43.89°W
打ち上げ日 Aug 28, 2025
運用期間 1 year
タイプ internet

技術仕様

分類 Payload
質量 575.00 kg
乾燥質量 530.00 kg
長さ 0.30 m
スパン 29.00 m
形状 ? Box + pan
製造者 SPXS
バスタイプ Starlink V2MO
フェーズステータス In Orbit
所有者/国 SPXS/US

Most Searched